This is the latest recevied weather packets stored in our database for station/object KA7EII-13. If no packets are shown the sender has not sent any weather packets the latest 10 day(s).
| Time | Temp. | Humidity | Pressure | Rain* | Wind** | Luminosity | Snow |
|---|---|---|---|---|---|---|---|
| 1777850383 | 23.89° C | 19% | 1100 hPa | 0 mm | - | 328 W/m² | - |
| 1777850080 | 23.89° C | 20% | 1100.5 hPa | 0 mm | - | 350 W/m² | - |
| 1777849777 | 25° C | 21% | 1100.6 hPa | 0 mm | - | 373 W/m² | - |
| 1777849473 | 25.56° C | 20% | 1100.3 hPa | 0 mm | - | 402 W/m² | - |
| 1777849171 | 25° C | 21% | 1100.7 hPa | 0 mm | - | 419 W/m² | - |
| 1777848868 | 25° C | 19% | 1100.9 hPa | 0 mm | - | 428 W/m² | - |
| 1777848563 | 24.44° C | 19% | 1100.7 hPa | 0 mm | - | 422 W/m² | - |
| 1777848260 | 24.44° C | 20% | 1100.6 hPa | 0 mm | - | 403 W/m² | - |
| 1777847958 | 24.44° C | 21% | 1100.8 hPa | 0 mm | - | 426 W/m² | - |
| 1777847656 | 24.44° C | 22% | 1100.9 hPa | 0 mm | - | 471 W/m² | - |
| 1777847351 | 24.44° C | 19% | 1101.2 hPa | 0 mm | - | 503 W/m² | - |
| 1777847050 | 24.44° C | 20% | 1101.1 hPa | 0 mm | - | 491 W/m² | - |
| 1777846747 | 24.44° C | 19% | 1101.1 hPa | 0 mm | - | 515 W/m² | - |
| 1777846446 | 25° C | 19% | 1101.3 hPa | 0 mm | - | 567 W/m² | - |
| 1777846142 | 24.44° C | 19% | 1101.3 hPa | 0 mm | - | 621 W/m² | - |
| 1777845839 | 25° C | 20% | 1101.5 hPa | 0 mm | - | 616 W/m² | - |
| 1777845536 | 24.44° C | 20% | 1101.6 hPa | 0 mm | - | 613 W/m² | - |
| 1777845233 | 25° C | 22% | 1101.6 hPa | 0 mm | - | 613 W/m² | - |
| 1777844930 | 24.44° C | 21% | 1101.4 hPa | 0 mm | - | 599 W/m² | - |
| 1777844627 | 23.89° C | 20% | 1101.7 hPa | 0 mm | - | 622 W/m² | - |
| 1777844325 | 23.89° C | 23% | 1101.9 hPa | 0 mm | - | 642 W/m² | - |
| 1777844023 | 23.33° C | 20% | 1101.9 hPa | 0 mm | - | 654 W/m² | - |
| 1777843719 | 23.89° C | 19% | 1101.9 hPa | 0 mm | - | 684 W/m² | - |
| 1777843417 | 23.89° C | 19% | 1102.1 hPa | 0 mm | - | 684 W/m² | - |
| 1777843114 | 23.89° C | 20% | 1102.1 hPa | 0 mm | - | 662 W/m² | - |
* Rain latest hour (hover to see other rain measurements)
** Current wind speed in m/s (hover to see current wind gust speed)